Regional Weather Roundup
Issued by NWS

Home | Current Version | Previous Version | Graphics & Text | Print | Product List | Glossary On
Versions: 1 2 3 4 5 6 7 8 9 10 11 12 13 14 15 16 17 18 19 20 21 22 23 24 25 26 27 28 29 30 31 32 33 34 35 36 37 38 39 40 41 42 43 44 45 46 47 48 49
000
ASUS43 KDMX 211707
RWRIA

WEATHER ROUNDUP FOR IOWA
NATIONAL WEATHER SERVICE DES MOINES IA
1200 PM CDT SUN SEP 21 2014

NOTE: "FAIR" INDICATES FEW OR NO CLOUDS BELOW 12,000 FEET WITH NO
SIGNIFICANT WEATHER AND/OR OBSTRUCTIONS TO VISIBILITY.

* - THESE STATIONS ARE NOT NWS STATIONS...THUS NOT UNDER NWS
QUALITY CONTROL.  THEY ALSO DO NOT REPORT WEATHER SUCH
AS PRECIPITATION OR FOG.

IAZ001>003-012>014-020>022-031>034-043>046-211800-
   NORTHWEST IOWA

CITY           SKY/WX    TMP DP  RH WIND       PRES   REMARKS
CARROLL *      MOSUNNY   66  46  48 N16G30    30.18S
CHEROKEE *     MOSUNNY   64  48  55 N15       30.21S
DENISON *      SUNNY     64  50  59 N17       30.19S
LE MARS *      MOSUNNY   66  48  52 NW13G20   30.24R
ORANGE CITY *  SUNNY     64  46  52 N13G20    30.23R
SHELDON *      MOSUNNY   64  48  55 N14G21    30.22R
SIOUX CITY     SUNNY     67  50  54 NW14G21   30.24R
SPENCER        MOSUNNY   64  48  56 N16G22    30.21R
STORM LAKE *   SUNNY     63  50  63 NW16      30.20S
$$

IAZ055>058-069>071-079>083-090>094-211800-
   SOUTHWEST IOWA

CITY           SKY/WX    TMP DP  RH WIND       PRES   REMARKS
ATLANTIC *     SUNNY     66  50  55 N15G23    30.19R
AUDUBON *      SUNNY     64  45  48 N15G24    30.20S
CLARINDA *     SUNNY     70  50  49 NW14G22   30.21S
COUNCIL BLFS * SUNNY     66  50  55 NW12G23   30.21S
CRESTON *      MOSUNNY   66  48  52 N22G29    30.17S
HARLAN  *      SUNNY     66  48  52 N16G23    30.24R
LAMONI         SUNNY     67  52  58 NW18G24   30.16R
RED OAK *      SUNNY     68  50  52 N14G23    30.21R
SHENANDOAH *   SUNNY     70  48  46 NW14G22   30.22R
$$

IAZ047>049-059>061-072>074-084-211800-
   CENTRAL IOWA

CITY           SKY/WX    TMP DP  RH WIND       PRES   REMARKS
AMES           MOSUNNY   65  48  54 N22G30    30.14R
ANKENY *       MOSUNNY   66  48  52 N15G26    30.14R
CHARITON *     SUNNY     66  48  52 N17G25    30.14R
DES MOINES     MOSUNNY   68  47  46 N20G26    30.14R
GRINNELL*      MOSUNNY   64  48  55 NW13G21   30.11S
KNOXVILLE *    SUNNY     66  46  48 N16G26    30.11S
MARSHALLTOWN   MOSUNNY   64  49  57 N20G25    30.12R
PELLA *        SUNNY     68  48  49 N16G24    30.13R
PERRY *          N/A     66  46  48 N13G20    30.17R
$$

IAZ004>006-015-016-023>025-035-036-211800-
   NORTH CENTRAL IOWA

CITY           SKY/WX    TMP DP  RH WIND       PRES   REMARKS
ALGONA *       PTSUNNY   63  46  55 N14G20    30.17R
CLARION *        N/A     61  46  59 N15G22    30.15R
ESTHERVILLE    PTSUNNY   63  47  55 N16G24    30.18R
FORT DODGE *   PTSUNNY   64  48  55 N7G20     30.18R
MASON CITY     CLOUDY    59  50  72 N15       30.15R
FOREST CITY *  PTSUNNY   59  50  72 N16       30.15R
IOWA FALLS *     N/A     63  48  59 NW16G24   30.14S
$$

IAZ007>011-017>019-026>030-037>042-050>054-066-211800-
   NORTHEAST IOWA

CITY           SKY/WX    TMP DP  RH WIND       PRES   REMARKS
CEDAR RAPIDS   CLOUDY    58  50  75 NW21G26   30.07R
CHARLES CITY * CLOUDY    59  48  67 N18       30.12R
CLINTON *      CLOUDY    61  48  63 NW16G22   30.05R
DECORAH *      CLOUDY    59  50  72 N13       30.06R
DUBUQUE        CLOUDY    57  50  77 NW16G24   30.04R
MONTICELLO *   CLOUDY    59  50  72 NW15G21   30.06R
OELWEIN *      CLOUDY    59  50  72 N20       30.09R
WATERLOO       CLOUDY    58  49  72 N20       30.10R
$$

IAZ064-065-067-068-078-211800-
   EAST CENTRAL IOWA

CITY           SKY/WX    TMP DP  RH WIND       PRES   REMARKS
DAVENPORT      CLOUDY    61  48  62 NW18G26   30.04R
IOWA CITY        N/A     62  50  64 N16G26    30.09R
MT. PLEASANT * SUNNY     68  45  42 NW18G24   30.07R
MUSCATINE *    PTSUNNY   64  48  55 NW17G29   30.06R
QUAD CITIES    PTSUNNY   64  50  60 NW16G24   30.02R
$$

IAZ062-063-075>077-085>089-095>099-211800-
   SOUTHEAST IOWA

CITY           SKY/WX    TMP DP  RH WIND       PRES   REMARKS
BURLINGTON     SUNNY     68  47  46 N14G31    30.04R
FAIRFIELD *    SUNNY     68  46  45 NW18G29   30.09R
FORT MADISON *   N/A     72  46  40 NW20      30.06R
KEOKUK *       SUNNY     70  50  49 NW14G22   30.06R
OSKALOOSA *      N/A     66  48  52 N22G30    30.11R
CENTERVILLE *  SUNNY     68  50  52 NW15      30.13S
OTTUMWA        SUNNY     67  48  50 NW23G32   30.10R
WASHINGTON *   PTSUNNY   64  50  59 N21       30.08R
$$

ABBREVIATIONS USED IN REMARKS
   TC - TEMPERATURES IN CELSIUS
  WCI - WIND CHILL INDEX
   HX - HEAT INDEX
  VSB - VISIBILITY
$$




USA.gov is the U.S. government's official web portal to all federal, state and local government web resources and services.